Location: Dortmund
(51.5019°N, 7.6520°E)
Time: 04:28:11
(UTC+01:00)

ISS - Pass Details

Date: 12 February 2018
Orbit: 403 x 407 km, 51.6° (Epoch: 18 February)

Event Time Altitude Azimuth Distance (km) Brightness Sun altitude
Rises 18:31:52 0° 282° (WNW) 2,322 1.5 -8.8°
Reaches altitude 10° 18:34:18 10° 264° (W) 1,459 0.7 -9.1°
Maximum altitude 18:36:45 20° 216° (SW) 1,013 -1.2 -9.5°
Drops below altitude 10° 18:39:11 10° 167° (SSE) 1,454 -1.0 -9.9°
Sets 18:41:36 0° 150° (SSE) 2,310 -0.2 -10.2°
